SCP
0 0 0 0 0 0 0 0 0 0 1 1 1 1 1 1 1 2 2 3 2 2 2 2 2 2 2 2 3 3 3 4 4 3 3 2 2 3 4 5 5 5 4 3
0 0 0 0 0 0 0 0 0 0 0 0 1 1 1 1 1 2 2 3 2 2 2 2 2 3 3 3 3 3 3 4 3 3 2 2 2 2 3 4 6 5 4 3
0 0 0 0 0 0 0 0 0 0 0 0 0 1 1 1 1 1 2 2 2 3 3 3 3 4 4 4 4 3 4 4 3 3 2 2 2 2 2 4 5 5 3 3
0 0 0 0 0 0 0 0 0 0 0 0 0 1 1 1 1 1 1 2 2 3 3 3 3 4 5 6 5 5 5 4 4 3 3 2 3 3 3 4 4 4 3 3
0 0 0 0 0 0 0 0 0 0 0 0 0 1 1 1 1 1 1 1 2 3 3 4 5 5 6 6 6 6 6 5 4 4 3 3 3 3 3 4 4 4 4 3
0 0 0 0 0 0 0 1 1 1 1 0 0 1 1 1 1 1 1 1 2 3 4 5 6 6 6 6 6 6 6 5 5 4 4 3 3 3 4 4 5 5 4 4
0 0 0 0 0 0 0 1 1 1 1 0 0 1 1 1 1 1 1 1 2 3 5 6 6 6 5 5 5 6 6 6 5 5 5 4 4 4 4 5 5 5 4 4
0 0 0 0 0 0 0 1 1 1 1 0 1 1 1 1 1 1 1 2 3 4 5 6 6 5 4 5 6 7 6 6 5 6 6 5 4 5 5 5 5 4 4 4
0 0 0 0 0 0 0 1 1 1 1 1 1 1 1 1 1 1 2 2 4 4 5 5 6 5 5 6 7 8 7 6 5 6 6 5 5 5 5 5 5 5 5 5
0 0 0 0 0 0 0 1 1 1 1 1 1 1 1 1 1 2 2 3 4 4 4 5 6 5 6 7 8 8 7 6 5 5 5 5 5 6 6 6 6 6 6 6
0 0 0 0 0 0 0 1 1 1 1 1 1 1 1 1 1 2 3 3 4 4 4 5 5 5 5 6 6 6 6 5 4 4 4 4 5 6 6 6 5 5 6 6
1 1 0 0 0 0 0 1 1 1 1 1 1 1 1 1 2 3 4 5 5 4 4 5 5 4 4 4 5 5 5 4 3 3 4 5 6 7 6 5 4 4 5 6
0 0 0 0 0 0 0 0 1 1 1 1 1 1 1 2 3 5 6 5 4 4 4 4 4 3 3 4 5 5 4 3 3 4 5 6 7 6 5 4 4 4 5 6
0 0 0 0 0 0 0 0 1 1 1 1 1 1 2 3 5 6 6 5 4 4 4 4 4 5 5 6 7 6 4 3 4 4 5 6 6 6 5 4 5 5 6 6
0 0 0 0 0 0 0 0 1 1 1 1 1 2 3 5 6 6 5 5 5 4 4 4 6 7 8 8 8 7 6 5 5 5 6 6 7 7 6 5 6 6 6 6
1 1 0 0 0 0 0 0 1 1 1 1 1 3 4 5 5 5 5 5 5 5 5 5 6 8 9 10 11 9 8 7 7 7 7 8 10 10 8 7 7 8 8 7
1 1 1 0 0 0 0 1 1 1 2 2 2 3 5 5 4 5 5 5 5 5 5 5 6 8 10 12 13 11 9 8 9 9 9 10 11 12 11 10 9 10 9 9
2 2 1 1 0 0 1 1 1 2 3 4 3 3 4 5 5 5 5 6 6 6 6 7 8 10 12 13 13 11 9 9 9 9 8 9 11 12 12 12 12 11 10 9
2 2 2 1 1 1 1 1 2 2 4 5 4 4 4 4 5 5 6 7 8 8 10 12 13 15 14 13 12 11 10 8 8 8 8 8 10 11 11 12 12 11 10 9
1 2 2 1 1 1 1 2 2 2 3 5 5 4 4 4 5 6 7 8 10 11 13 14 15 15 14 13 13 12 11 9 8 9 10 10 10 10 10 10 10 10 8 7
1 1 1 1 1 1 1 2 3 3 4 5 5 5 5 5 5 6 7 8 9 10 11 12 12 13 13 14 15 15 13 11 10 11 12 12 12 11 10 9 9 8 7 6
1 1 2 2 2 2 3 4 5 6 6 6 5 6 6 7 6 6 7 8 8 8 9 10 11 12 12 15 18 18 15 13 11 12 14 15 14 13 11 9 9 9 8 7
2 2 3 3 2 3 5 7 7 7 7 7 6 6 7 7 8 8 9 10 10 10 11 13 13 14 14 16 19 19 17 15 14 14 15 16 15 13 11 9 9 9 8 7
2 3 4 4 3 4 5 7 8 8 8 8 7 7 8 9 9 10 13 13 13 14 15 17 18 18 18 18 19 20 20 18 16 14 14 13 13 12 10 8 7 7 7 7
3 3 5 5 5 5 5 6 7 8 8 8 8 8 10 11 12 14 15 16 16 17 18 19 19 20 20 18 18 19 20 18 15 13 12 11 11 10 9 8 6 5 6 7
4 4 5 6 7 6 6 6 6 7 8 8 8 9 10 12 16 16 16 17 17 17 18 19 18 17 18 17 17 18 18 16 13 12 12 11 10 10 10 9 7 5 5 5
Wind_Speed
12 12 11 9 10 9 7 6 4 3 5 5 6 8 12 15 14 14 13 13 13 12 12 11 10 11 11 9 8 6 5 4 2 1 1 1 1 1 1 2 2 2 1 1
13 15 14 11 10 9 8 6 4 4 3 4 6 6 9 13 14 14 14 13 13 13 13 12 11 11 11 10 9 7 6 5 4 2 1 1 1 1 2 2 2 2 2 2
17 12 11 11 11 9 8 7 5 3 3 6 5 5 6 10 12 13 13 13 14 15 15 13 12 11 11 10 9 8 7 6 5 4 2 1 1 0 1 2 2 1 2 2
16 14 11 12 12 11 8 6 5 6 5 5 6 5 8 9 12 14 14 14 14 14 15 14 13 12 11 11 10 8 7 6 5 4 2 3 3 2 2 2 2 2 2 1
15 14 13 13 13 11 9 5 6 6 8 9 8 4 6 8 10 12 13 14 14 14 14 15 14 12 11 12 11 9 8 6 5 4 3 2 1 2 2 3 3 2 2 1
16 13 13 13 12 11 9 7 8 9 8 9 9 6 6 8 10 12 13 13 13 14 14 14 13 12 11 11 11 11 9 7 6 5 4 3 2 1 2 2 1 2 2 1
17 16 14 12 13 13 12 9 6 7 7 7 7 6 4 9 10 11 12 12 13 13 13 13 13 13 11 11 11 11 10 8 7 6 4 4 3 3 2 1 1 0 1 2
16 16 16 13 14 13 13 14 10 8 6 3 5 5 4 7 9 10 10 12 13 13 12 13 13 12 12 12 11 11 11 9 8 7 5 4 3 3 2 1 0 1 1 2
13 14 14 14 14 15 14 14 13 11 10 6 5 4 2 5 8 9 10 11 12 13 13 14 14 13 12 12 11 11 11 9 8 7 6 4 3 2 2 2 1 1 1 2
14 11 12 14 13 16 16 12 9 10 7 8 6 6 4 7 8 10 10 11 11 12 12 13 13 13 12 12 10 11 11 9 8 8 7 6 5 4 2 2 2 2 2 2
16 13 12 13 15 15 15 15 11 8 8 8 5 3 3 5 5 8 11 10 11 12 12 12 12 12 12 12 12 11 11 10 8 7 6 5 6 5 4 3 3 3 2 2
12 11 12 14 14 15 15 16 14 9 7 8 8 4 6 6 4 4 8 9 9 9 10 11 12 12 12 12 12 11 11 10 9 8 7 6 5 5 5 4 4 3 3 2
8 9 11 12 13 15 15 15 16 14 10 10 9 3 4 4 3 2 6 8 7 7 8 9 11 11 11 11 10 11 10 10 10 9 8 7 6 5 4 4 4 3 3 3
7 10 13 14 11 11 14 16 16 15 10 10 9 6 5 3 2 2 5 8 8 8 6 7 9 9 9 10 10 10 10 10 9 9 8 7 6 6 5 5 4 4 3 3
8 12 15 16 14 12 14 15 16 16 14 11 6 7 6 6 4 3 4 7 7 8 7 7 7 8 8 9 9 9 8 8 8 8 8 7 6 6 5 5 4 4 3 4
8 9 12 16 16 15 16 15 16 16 15 14 9 7 2 7 5 3 4 5 6 6 7 6 6 8 8 9 9 8 8 8 8 8 8 8 7 7 6 5 5 4 3 3
8 8 11 13 15 15 16 14 14 13 12 11 10 6 3 6 6 4 3 3 5 6 5 5 6 7 7 8 8 8 8 8 8 7 7 8 8 7 6 6 6 5 4 4
7 7 8 12 13 17 11 11 12 11 10 9 6 5 5 7 8 6 4 3 5 5 5 5 5 6 8 8 8 8 8 8 8 8 7 7 8 7 6 6 5 5 4 3
9 7 9 11 14 14 11 10 11 10 8 6 4 2 3 5 7 6 5 4 5 4 4 4 4 6 7 8 8 7 7 8 7 7 7 7 7 7 7 6 6 5 4 4
11 8 10 11 13 12 8 8 7 7 7 4 2 1 3 3 3 4 5 6 5 5 5 4 4 5 6 7 8 8 7 7 7 7 7 7 6 6 6 6 6 5 4 4
13 12 13 13 12 9 6 6 8 9 2 2 2 3 3 3 3 4 5 6 6 5 5 5 5 5 5 6 7 7 6 6 5 6 6 6 6 6 7 6 5 5 5 4
11 11 12 12 13 7 2 4 3 2 4 3 3 4 5 5 6 6 6 6 6 5 4 5 5 4 4 5 6 6 5 5 4 5 6 6 6 6 7 6 5 5 5 4
10 8 5 5 3 2 3 4 3 4 4 3 3 4 4 4 5 5 5 5 5 4 4 4 5 5 4 4 5 5 4 4 4 5 5 5 6 5 6 7 6 5 4 4
7 6 4 3 2 2 2 3 2 2 3 2 2 2 3 3 5 5 4 4 4 3 3 3 4 4 4 4 4 4 4 4 5 5 4 5 5 5 5 5 5 5 5 5
5 4 5 4 4 2 2 2 1 1 2 2 2 2 2 3 4 4 4 3 3 3 3 2 2 3 3 3 4 4 4 4 4 4 4 4 5 5 4 4 2 3 2 3
5 4 3 2 2 2 2 1 1 1 2 2 2 2 2 3 4 4 4 3 3 2 3 3 3 3 3 3 3 3 3 4 4 4 4 4 4 4 4 4 2 3 2 4
Wind_Direction
223 232 232 222 215 223 235 241 208 176 164 166 147 150 168 172 177 173 173 170 168 170 162 158 163 155 150 147 150 155 158 151 156 154 166 167 164 157 126 123 101 106 89 71
230 232 237 229 226 225 238 251 236 187 171 183 150 170 189 181 183 180 176 174 171 169 165 163 168 164 160 157 159 162 166 163 169 162 163 175 153 142 127 102 104 84 80 51
236 234 232 240 237 239 238 247 257 235 225 213 176 178 198 203 188 181 180 176 175 174 171 170 173 172 165 165 170 172 172 167 172 164 174 164 137 131 138 130 115 101 92 81
238 239 236 238 241 245 243 245 252 242 244 249 224 189 197 202 195 184 182 182 181 177 173 172 174 174 170 169 168 162 162 162 164 171 182 186 178 172 138 125 126 135 123 110
238 235 233 239 241 245 252 251 262 254 251 258 249 221 167 199 197 189 185 185 183 178 174 173 174 173 173 170 164 160 157 161 165 173 184 194 183 163 135 124 138 152 138 132
248 242 237 239 243 244 252 249 254 252 253 255 264 252 178 189 188 187 184 180 182 175 172 170 169 165 169 166 163 160 157 162 165 174 177 164 154 116 104 117 156 178 152 122
236 240 233 236 241 235 236 236 242 245 236 250 262 253 179 170 178 176 171 175 176 172 168 167 166 166 168 167 164 157 157 164 167 170 170 165 170 161 154 172 160 198 105 107
225 228 224 222 234 236 230 237 236 247 244 244 271 245 184 157 154 151 160 168 171 171 167 167 167 167 168 168 160 156 159 164 167 165 166 168 171 171 158 165 141 89 82 84
236 230 213 215 225 238 237 237 245 251 259 254 228 231 198 164 149 150 155 160 167 171 168 169 168 169 167 166 161 157 156 160 161 160 159 157 154 158 153 136 124 55 54 97
252 253 229 209 216 232 242 247 251 253 258 262 233 237 213 169 161 159 156 157 159 163 168 169 169 169 166 165 159 153 154 158 161 166 171 165 164 157 152 134 122 103 70 50
245 254 245 216 210 225 224 236 247 262 263 264 251 223 205 161 175 166 154 151 153 159 165 164 164 165 162 162 160 156 154 160 165 163 162 161 158 158 158 152 137 122 109 87
239 250 252 232 216 228 237 232 234 234 245 264 269 218 178 147 160 161 145 146 149 155 161 160 160 160 161 163 163 161 162 166 166 162 160 160 152 155 158 152 146 144 134 120
237 245 244 234 216 215 234 238 238 238 232 237 251 233 128 112 118 120 133 135 137 145 156 158 156 157 160 161 159 160 165 167 165 162 161 158 158 156 156 150 148 143 133 124
257 244 247 243 232 219 221 235 236 240 240 238 234 200 169 140 155 160 145 137 143 141 145 151 152 153 154 153 152 158 165 163 163 162 161 162 163 159 158 150 148 146 143 139
246 243 248 259 259 251 234 231 233 237 248 254 236 223 181 153 153 146 135 134 142 141 141 139 145 146 150 148 151 158 159 156 158 157 161 160 155 152 150 152 150 145 150 143
235 253 251 254 256 257 247 239 234 235 239 245 241 240 160 125 130 132 119 136 142 135 140 144 148 147 150 152 156 153 153 152 151 156 159 155 155 155 154 153 148 147 146 138
232 240 248 249 249 251 244 236 234 236 236 237 240 231 184 139 136 138 136 151 142 143 141 148 148 146 147 151 151 153 151 151 155 158 158 156 156 155 159 160 153 154 152 138
244 249 248 250 250 244 244 248 241 239 246 247 229 197 158 154 142 136 143 163 137 137 138 141 147 147 149 150 150 151 154 155 158 157 159 159 159 160 160 157 154 152 144 139
227 237 245 245 244 241 242 244 248 240 236 249 245 197 167 144 146 130 130 134 121 122 123 130 144 153 148 151 152 151 155 156 159 160 163 163 162 162 163 161 158 152 149 149
214 215 239 244 247 243 246 252 263 255 228 236 214 165 139 145 191 119 97 99 104 111 114 117 115 122 132 143 147 153 157 161 167 166 167 162 160 163 164 161 158 154 153 159
207 210 228 243 246 247 267 276 255 237 209 58 56 71 89 97 76 101 94 92 99 101 114 115 114 120 128 135 142 151 154 162 163 155 152 158 160 162 160 157 157 157 163 170
221 216 219 237 243 240 276 242 259 62 68 69 56 72 78 77 89 101 104 101 104 105 107 112 113 115 124 134 144 151 151 149 149 148 152 156 158 164 155 153 160 162 168 170
227 233 230 241 242 52 26 59 70 72 68 64 65 69 89 99 107 107 106 107 109 112 116 117 116 120 125 134 140 148 146 143 147 151 152 151 153 149 151 161 166 169 177 187
225 228 220 233 200 201 157 99 73 82 74 75 77 84 100 114 118 117 112 109 113 111 109 109 121 127 132 136 130 133 141 147 152 154 157 155 156 159 156 166 174 181 187 195
274 263 229 208 204 176 123 113 83 74 79 65 73 96 114 122 119 118 117 113 109 107 104 110 122 129 131 123 125 135 143 149 154 157 161 163 168 168 162 162 169 177 169 179
286 290 262 236 223 185 126 48 163 121 87 68 73 88 107 123 133 130 122 117 112 110 104 108 115 119 126 131 128 126 137 148 159 167 172 178 178 172 179 170 146 50 109 122